Hourly Data Report for July 06, 2021

KUGLUKTUK A
NUNAVUT
Current Station Operator: NAVCAN

67°49'00.000" N
115°08'38.000" W
22.60 m
2300903
71938
YCO

Download Data

Hourly Data (July 2021)
Hourly Data Report for July 6, 2021
TIME
LST
Temp Definition
°C
Dew Point Definition
°C
Rel Hum Definition
%
Precip. Amount Definition
mm

Wind Dir Definition
10's deg

Wind Spd Definition
km/h
Visibility Definition
km
Stn Press Definition
kPa
Hmdx Definition


Wind Chill Definition


Weather Definition


00:00 9.9 8.7 93   9 12 24.1 101.39     LegendNANA
01:00 9.4 8.5 94   12 12 24.1 101.36     LegendNANA
02:00 8.8 8.4 97   11 14 24.1 101.27     Mainly Clear
03:00 7.1 6.4 95   5 9 24.1 101.29     LegendNANA
04:00 7.3 6.9 98   11 13 6.4 101.26     Fog
05:00 7.4 6.7 95   9 17 24.1 101.22     Mainly Clear
06:00 9.4 8.2 93   10 17 24.1 101.17     LegendNANA
07:00 10.7 8.5 86   9 15 24.1 101.12     LegendNANA
08:00 8.7 6.8 87   8 19 24.1 101.09     Mainly Clear
09:00
10:00
11:00
12:00 10.8 6.3 74   8 27 24.1 100.96     LegendNANA
13:00 10.5 5.8 73   8 27 24.1 100.94     LegendNANA
14:00 9.7 5.3 74   7 27 24.1 100.91     Mostly Cloudy
15:00 8.8 4.6 75   6 26 24.1 100.90     LegendNANA
16:00 8.9 4.5 74   7 22 24.1 100.84     LegendNANA
17:00 8.8 4.5 74   6 22 24.1 100.82     Mainly Clear
18:00 8.2 4.4 77   7 25 24.1 100.78     LegendNANA
19:00 7.9 4.3 78   6 19 24.1 100.73     LegendNANA
20:00 7.0 3.8 80   6 16 24.1 100.70     Mainly Clear
21:00 5.7 3.2 84   7 13 24.1 100.67     LegendNANA
22:00 5.1 2.5 83   5 12 24.1 100.63     LegendNANA
23:00 4.4 2.5 87   4 16 24.1 100.59     Mainly Clear

Notes on Data Quality.

Legend

  • E = Estimated
  • M = Missing
  • NA = Not Available*
  • [empty] = Indicates an unobserved value
Date modified: